Regional Weather Roundup
Issued by NWS

Home | Current Version | Previous Version | Graphics & Text | Print | Product List | Glossary On
Versions: 1 2 3 4 5 6 7 8 9 10 11 12 13 14 15 16 17 18 19 20 21 22 23 24 25 26 27 28 29 30 31 32 33 34 35 36 37 38 39 40 41 42 43 44 45 46 47 48 49 50
000
ASUS43 KOAX 291402
RWRNE

WEATHER ROUNDUP FOR NEBRASKA
NATIONAL WEATHER SERVICE OMAHA NE
900 AM CDT THU SEP 29 2016

NOTES: SATELLITE DATA IS BEING USED TO AUGMENT CLOUD COVER ABOVE
       12000 FEET.
       "FAIR" INDICATES FEW OR NO CLOUDS BELOW 12,000 FEET WITH NO
       SIGNIFICANT WEATHER AND/OR OBSTRUCTIONS TO VISIBILITY.

  * THESE STATIONS DO NOT REPORT WEATHER SUCH AS RAIN...SNOW OR FOG.

NEZ001>004-019>022-054>056-291500-
NEBRASKA PANHANDLE

CITY           SKY/WX    TMP DP  RH WIND       PRES   REMARKS
SCOTTSBLUFF    CLOUDY    48  38  68 E13       30.35R
ALLIANCE       SUNNY     47  40  76 SE8       30.36R
CHADRON        SUNNY     56  38  50 SE5       30.32S
KIMBALL        SUNNY     49  44  81 S6        30.38R
SIDNEY         SUNNY     53  42  66 S10       30.38R
$$

NEZ057>060-069>072-079>082-291500-
SOUTHWEST NEBRASKA

CITY           SKY/WX    TMP DP  RH WIND       PRES   REMARKS
NORTH PLATTE   SUNNY     43  41  93 E5        30.44R
IMPERIAL       SUNNY     46  39  76 SE7       30.41R
LEXINGTON      SUNNY     43  41  91 CALM      30.46R
MCCOOK         SUNNY     43  40  89 E3        30.44R
OGALLALA       SUNNY     47  40  76 E3        30.41R
$$

NEZ005>010-023>029-035>040-094-291500-
NORTH CENTRAL NEBRASKA

CITY           SKY/WX    TMP DP  RH WIND       PRES   REMARKS
VALENTINE      SUNNY     44  40  85 CALM      30.41F
AINSWORTH      SUNNY     46  45  97 S8        30.43S
BROKEN BOW     CLOUDY    44  42  93 CALM      30.45R
O`NEILL        CLOUDY    46  45  96 CALM      30.47R
ORD            CLOUDY    42  38  85 CALM      30.46R
THEDFORD       CLOUDY    43  41  95 CALM      30.44S
$$

NEZ041-046>049-061>064-073>077-083>087-291500-
SOUTH CENTRAL NEBRASKA

CITY           SKY/WX    TMP DP  RH WIND       PRES   REMARKS
GRAND ISLAND   SUNNY     46  43  89 NW3       30.47R
AURORA         SUNNY     46  46 100 N3        30.46R
HASTINGS       SUNNY     47  43  86 N5        30.47R
HEBRON         SUNNY     47  44  90 CALM      30.45R
HOLDREGE       SUNNY     46  43  92 CALM      30.46R
KEARNEY *      SUNNY     45  39  81 CALM      30.46R
YORK           SUNNY     48  46  93 CALM      30.46R
$$

NEZ011>018-030>034-042>045-291500-
NORTHEAST NEBRASKA

CITY           SKY/WX    TMP DP  RH WIND       PRES   REMARKS
NORFOLK        SUNNY     46  43  89 CALM      30.46R
ALBION         SUNNY     43  42  95 NW3       30.46S
BLAIR          SUNNY     51  49  91 N8        30.44R
FREMONT        SUNNY     49  47  95 NW5       30.45R
TEKAMAH        SUNNY     51  47  86 N7        30.45R
WAYNE          SUNNY     45  43  94 CALM      30.47R
$$

NEZ050>053-065>068-078-088>093-291500-
SOUTHEAST NEBRASKA

CITY           SKY/WX    TMP DP  RH WIND       PRES   REMARKS
LINCOLN        SUNNY     51  47  86 N5        30.46R
OMAHA EPPLEY   MOSUNNY   50  45  83 N9        30.44R
BEATRICE       SUNNY     50  48  92 N5        30.43S
FALLS CITY     SUNNY     52  49  89 NW6       30.40R
NEBRASKA CITY  SUNNY     52  49  92 N7        30.43R
PLATTSMOUTH    SUNNY     51  48  90 N3        30.43R
$$

NEZ044-045-051>053-067-291500-
OMAHA AREA

CITY           SKY/WX    TMP DP  RH WIND       PRES   REMARKS
OMAHA EPPLEY   MOSUNNY   50  45  83 N9        30.44R
BLAIR          SUNNY     51  49  91 N8        30.44R
FREMONT        SUNNY     49  47  95 NW5       30.45R
MILLARD        SUNNY     53  48  84 N3        30.44R
OFFUTT AFB     SUNNY     54  50  88 NE3       30.43R
PLATTSMOUTH    SUNNY     51  48  90 N3        30.43R
WAHOO          FAIR      49  47  91 N5        30.44S
$$




USA.gov is the U.S. government's official web portal to all federal, state and local government web resources and services.